Regional Weather Roundup
Issued by NWS Midland/Odessa, TX

Home | Current Version | Previous Version | Text Only | Print | Product List | Glossary On
Versions: 1 2 3 4 5 6 7 8 9 10 11 12 13 14 15 16 17 18 19 20 21 22 23 24 25 26 27 28 29 30 31 32 33 34 35 36 37 38 39 40 41 42 43 44 45 46 47 48 49 50
000
ASUS44 KMAF 040801
RWRMAF
MIDLAND AREA WEATHER ROUNDUP
NATIONAL WEATHER SERVICE MIDLAND TX
300 AM CDT TUE AUG 04 2015

...IN SOUTHWEST TEXAS AND SOUTHEAST NEW MEXICO...

CITY           SKY/WX    TMP DP  RH WIND       PRES   REMARKS
ALPINE         PTCLDY    65  61  87 S7        30.17F
ANDREWS        FAIR      69  69  99 CALM      30.00F
ARTESIA        CLEAR     68  68 100 SE9       30.03F
BIG SPRING     CLOUDY    70  64  80 CALM      30.00F
CARLSBAD       CLEAR     72  63  73 SW7       30.01F
DRYDEN           N/A     83  58  42 W3        29.96F
FORT STOCKTON  MOCLDY    75  65  70 SE9       30.01F
GUAD PASS      PTCLDY    69  56  62 W9        30.17F
HOBBS            N/A    N/A N/A N/A MISG        N/A
MARFA          PTCLDY    64  61  88 SW3       30.16R
MIDLAND AIRPK  CLOUDY    72  69  88 NE3       29.99F
MIDLAND INTL   CLOUDY    72  68  87 SE7       29.99S
ODESSA         CLOUDY    72  67  84 SE8       30.00S
PECOS          MOCLDY    74  63  67 NE3       30.00R
PRESIDIO       CLOUDY    75  64  67 MISG      29.99R
SEMINOLE       CLOUDY    69  67  92 CALM      30.03F
SNYDER         MOCLDY    74  65  72 W7        29.99F
WINK           PTCLDY    73  67  81 SW7       29.99S
$$
...OTHER STATIONS IN TEXAS...

CITY           SKY/WX    TMP DP  RH WIND       PRES   REMARKS
ABILENE        CLOUDY    83  58  42 S9        29.96R
AMARILLO       MOCLDY    69  64  84 S15       30.03F
AUSTIN         PTCLDY    76  71  85 CALM      29.94R
BROWNSVILLE    CLEAR     78  76  93 S7        29.90F
CORPUS CHRISTI MOCLDY    81  78  91 S9        29.90S
DALLAS FTW     PTCLDY    83  61  47 S7        29.89F
DEL RIO        CLEAR     82  67  60 E8        29.90R
EL PASO        PTCLDY    78  59  51 S9        30.02F
HOUSTON INT    PTCLDY    79  74  84 CALM      29.92R
LUBBOCK        CLOUDY    70  63  78 SW5       30.01F
SAN ANGELO     MOCLDY    80  59  48 S5        29.97S
SAN ANTONIO    CLOUDY    81  74  79 S12       29.95S
WACO           CLEAR     82  68  62 S13       29.91F
WICHITA FALLS  NOT AVBL
$$
...OTHER LOCATIONS IN NEW MEXICO...

CITY           SKY/WX    TMP DP  RH WIND       PRES   REMARKS
ALAMAGORDO     MOCLDY    77  57  50 S13       30.06F
ALBUQUERQUE    PTCLDY    72  50  45 W5        30.14R
CANNON AFB     CLEAR     65  63  92 S7        30.07R
CLOVIS         CLEAR     64  63  94 S9        30.07S
HOLLOMAN AFB   NOT AVBL
ROSWELL        PTCLDY    68  64  87 S10       30.02S
RUIDOSO          N/A    N/A N/A N/A MISG        N/A
SANTA FE       CLEAR     60  49  66 NE8       30.19S
TRUTH OR CONSE PTCLDY    74  58  57 SE5       30.09R
TUCUMCARI      PTCLDY    69  62  78 N3        30.05R
$$



USA.gov is the U.S. government's official web portal to all federal, state and local government web resources and services.